Probability
0 0 0 0 0 0 0 0 0 0 0 0 0 0 0 0 0 0 0 0 0 0 0 0 0 0 0 0 0 0 0 0 0 0 0 0 0 0
0 0 0 0 0 0 0 0 0 0 0 0 0 0 0 0 0 0 0 0 0 0 0 0 0 0 0 0 0 0 0 0 0 0 0 0 0 0
0 0 0 0 0 0 0 0 0 0 0 0 0 0 0 0 0 0 0 0 0 0 0 0 0 0 0 0 0 0 0 0 0 0 0 0 0 0
0 0 0 0 0 0 0 0 0 0 0 0 0 0 0 0 0 0 0 0 0 0 0 0 0 0 0 0 0 0 0 0 0 0 0 0 0 0
0 0 0 0 0 0 0 0 0 0 0 0 0 0 0 0 0 0 0 0 0 0 0 0 0 0 0 0 0 0 0 0 0 0 0 0 0 0
0 0 0 0 0 0 0 0 0 0 0 0 0 0 0 0 0 0 0 0 0 0 0 0 0 0 0 0 0 0 0 0 0 0 0 0 0 0
0 0 0 0 0 0 0 0 0 0 0 0 0 0 0 0 0 0 0 0 0 0 0 0 0 0 0 0 0 0 0 0 0 0 0 0 0 0
0 0 0 0 0 0 0 0 0 0 0 0 0 0 0 0 0 0 0 0 0 0 0 0 0 0 0 0 0 0 0 0 0 0 0 0 0 0
0 0 0 0 0 0 0 0 0 0 0 0 0 0 0 0 0 0 0 0 0 0 0 0 0 0 0 0 0 0 0 0 0 0 0 0 0 0
0 0 0 0 0 0 0 0 0 0 0 0 0 0 0 0 0 0 0 0 0 0 0 0 0 0 0 0 0 0 0 0 0 0 0 0 0 0
0 0 0 0 0 0 0 0 0 0 0 0 0 0 0 0 0 0 0 0 0 0 0 0 0 0 0 0 0 0 0 0 0 0 0 0 0 0
0 0 0 0 0 0 0 0 0 0 0 0 0 0 0 0 0 0 0 0 0 0 0 0 0 0 0 0 0 0 0 0 0 0 0 0 0 0
0 0 0 0 0 0 0 0 0 0 0 0 0 0 0 0 0 0 0 0 0 0 0 0 0 0 0 0 0 0 0 0 0 0 0 0 0 0
0 0 0 0 0 0 0 0 0 0 0 0 0 0 0 0 0 0 0 0 0 0 0 0 0 0 0 0 0 0 0 0 0 0 0 0 0 0
0 0 0 0 0 0 0 0 0 0 0 0 0 0 0 0 0 0 0 0 0 0 0 0 0 0 0 0 0 0 0 0 0 0 0 0 0 0
0 0 0 0 0 0 0 0 0 0 0 0 0 0 0 0 0 0 0 0 0 0 0 0 0 0 0 0 0 0 0 0 0 0 0 0 0 0
0 0 0 0 0 0 0 0 0 0 0 0 0 0 0 0 0 0 0 0 0 0 0 0 0 0 0 0 0 0 0 0 0 0 0 0 0 0
0 0 0 0 0 0 0 0 0 0 0 0 0 0 0 0 0 0 0 0 0 0 0 0 0 0 0 0 0 0 0 0 0 0 0 0 0 0
0 0 0 0 0 0 0 0 0 0 0 0 0 0 0 0 0 0 0 0 0 0 0 0 0 0 0 0 0 0 0 0 0 0 0 0 0 0
0 0 0 0 0 0 0 0 0 0 0 0 0 0 0 0 0 0 0 0 0 0 0 0 0 0 0 0 0 0 0 0 0 0 0 0 0 0
0 0 0 0 0 0 0 0 0 0 0 0 0 0 0 0 0 0 0 0 0 0 0 0 0 0 0 0 0 0 0 0 0 0 0 0 0 0
0 0 0 0 0 0 0 0 0 0 0 0 0 0 0 0 0 0 0 0 0 0 0 0 0 0 0 0 0 0 0 0 0 0 0 0 0 0
0 0 0 0 0 0 0 0 0 0 0 0 0 0 0 0 0 0 0 0 0 0 0 0 0 0 0 0 0 0 0 0 0 0 0 0 0 0
Wind_Speed
6 6 6 6 5 5 5 6 7 11 11 7 5 5 6 6 11 9 9 14 18 19 19 19 19 19 19 19 18 18 18 17 16 15 15 16 16 15
5 7 7 6 5 5 5 6 6 9 12 8 7 7 8 10 14 11 10 18 18 19 20 19 19 19 19 18 17 17 17 16 14 14 15 14 12 12
7 8 8 7 6 5 5 5 6 7 11 11 8 7 9 10 10 9 9 9 9 17 20 20 20 19 18 17 16 16 15 15 13 12 12 11 10 10
8 8 9 7 8 6 5 6 6 7 9 13 10 8 9 9 9 10 9 9 8 14 18 19 18 17 16 16 14 13 13 13 11 10 10 10 10 9
8 8 8 8 8 6 7 7 6 7 7 9 11 8 8 8 9 9 9 7 9 10 13 14 14 14 13 13 13 12 11 10 10 9 9 9 8 8
7 8 8 8 8 8 7 7 7 7 7 8 9 9 8 7 7 8 8 6 7 8 9 9 9 10 10 9 9 9 8 8 8 8 7 7 6 6
8 8 8 10 12 10 9 7 7 7 7 8 8 8 8 7 7 6 8 7 7 6 6 5 4 4 4 6 5 5 5 5 5 5 5 4 4 4
8 8 8 9 11 15 16 15 13 10 9 8 8 9 10 8 7 7 7 8 7 4 4 5 3 3 2 1 0 1 2 3 3 4 4 4 4 4
8 8 8 8 11 8 11 14 13 16 16 11 9 9 9 8 8 8 7 8 8 6 4 4 3 3 3 2 1 2 1 1 2 3 4 4 4 4
7 8 8 8 8 9 8 8 8 8 10 8 8 9 9 8 8 9 8 7 7 5 3 3 3 3 3 2 3 2 2 1 2 3 4 4 4 3
8 8 8 8 12 14 9 8 9 8 10 13 13 13 14 14 11 7 6 5 5 4 2 2 2 2 3 3 3 3 2 1 2 3 4 4 4 3
7 7 10 11 12 14 8 7 9 9 8 8 9 10 9 9 11 7 5 5 4 4 3 2 2 2 2 2 2 2 2 2 1 2 3 3 3 1
7 6 6 12 13 14 11 7 9 10 7 7 6 6 6 5 4 4 3 3 4 3 2 2 2 1 0 1 2 2 2 1 1 2 2 3 3 3
6 6 6 13 13 14 10 9 12 10 5 5 5 5 5 5 4 3 3 2 2 2 2 2 1 1 0 1 1 2 2 2 2 2 2 3 3 4
6 10 12 13 12 9 10 11 9 4 4 4 5 5 4 4 4 3 3 2 3 3 2 2 1 1 1 1 1 1 2 2 2 2 2 2 2 1
6 8 12 12 8 8 8 6 4 3 4 4 4 4 4 4 3 2 2 2 3 4 4 4 3 2 2 2 2 1 2 1 2 2 2 2 2 2
7 5 4 5 4 4 4 4 3 3 3 3 3 4 4 4 3 3 2 2 2 2 3 4 4 4 4 2 2 2 2 2 2 2 2 3 2 2
7 4 5 4 4 4 4 4 3 3 3 3 3 3 3 3 3 3 3 2 2 2 2 2 2 2 3 5 6 2 2 2 2 2 2 3 3 3
5 4 4 4 4 4 4 3 3 3 3 3 3 3 3 2 3 3 3 3 3 3 2 2 2 2 3 3 4 5 2 2 2 3 3 2 2 2
3 4 4 4 4 4 3 3 3 3 3 3 3 2 2 2 2 2 2 3 2 2 3 3 3 2 2 2 2 3 5 2 2 2 2 2 2 3
4 4 4 4 4 3 3 3 2 2 3 3 2 2 2 2 2 2 2 3 3 2 3 2 3 3 1 2 3 4 4 6 4 2 2 2 3 3
4 4 4 4 4 4 3 2 2 2 2 2 2 2 2 2 2 2 2 2 2 2 3 2 3 3 3 4 5 4 4 5 7 8 7 4 2 2
4 4 4 4 4 3 3 2 2 2 1 1 1 2 2 1 1 2 2 2 2 2 3 3 3 3 4 4 4 4 5 5 4 5 6 8 8 7
Wind_Direction
262 262 265 265 261 261 261 261 275 291 294 290 289 285 288 286 286 288 283 290 290 284 281 280 279 276 274 272 270 269 270 268 263 256 254 252 252 253
268 269 269 269 267 262 261 261 258 270 283 290 290 293 295 294 292 290 286 290 289 287 283 280 279 275 271 267 267 269 267 263 255 255 253 251 253 253
276 274 273 273 273 270 266 265 264 265 278 288 288 293 291 292 295 290 285 282 283 286 283 281 279 273 269 264 263 263 264 261 253 250 251 250 249 252
279 279 279 279 276 275 273 270 268 266 274 287 294 296 291 292 295 296 296 294 289 289 286 282 280 276 267 261 258 257 258 254 245 243 245 244 243 245
280 280 281 282 280 278 275 274 274 276 274 281 289 294 294 296 300 298 297 298 298 297 291 286 285 281 272 264 258 254 250 244 238 237 238 236 234 235
283 281 281 280 279 281 279 278 278 278 278 280 285 291 292 294 296 300 304 306 308 308 305 299 294 289 283 277 266 252 237 230 230 229 228 226 225 221
286 283 280 281 283 285 285 282 280 280 282 281 283 289 294 301 301 300 302 307 306 304 309 317 314 303 293 285 271 235 216 208 211 213 204 191 176 174
290 290 288 286 289 290 290 289 286 283 284 281 283 286 292 296 301 301 303 305 303 307 313 319 325 328 323 308 256 186 191 193 185 177 164 156 149 150
295 294 292 291 295 291 293 296 293 289 284 280 280 284 289 294 296 296 296 298 295 298 306 315 337 341 336 352 31 93 108 142 149 144 134 134 140 144
295 293 290 293 294 297 296 296 292 293 290 288 280 282 287 288 283 283 286 291 291 295 294 303 330 341 343 11 44 58 64 71 105 116 123 124 127 137
299 297 296 293 298 304 303 299 299 298 299 296 295 296 296 295 293 292 290 293 298 305 311 290 307 340 358 4 25 40 38 42 97 111 111 108 110 111
307 302 299 301 305 307 301 298 300 303 305 307 306 305 301 299 298 285 281 276 282 295 300 288 293 315 346 355 4 5 19 33 69 99 110 112 101 106
312 310 308 313 314 313 309 299 298 304 304 305 306 306 307 309 310 302 288 272 268 272 284 297 305 318 285 320 342 349 358 23 55 85 106 107 105 111
311 314 318 321 321 321 317 313 313 314 312 314 314 318 321 321 323 330 329 315 274 276 289 295 296 300 22 348 329 352 14 33 53 67 90 95 97 100
315 318 321 324 326 327 327 323 324 323 321 318 319 322 322 317 316 330 353 12 31 23 9 11 38 35 48 69 27 8 15 15 32 57 74 86 97 95
325 322 323 325 325 325 330 332 330 325 322 321 322 321 324 328 338 348 358 10 37 31 27 33 41 66 68 57 76 58 32 34 24 37 67 65 57 68
322 320 326 331 337 338 335 332 331 332 336 332 328 332 336 347 358 360 5 19 46 46 36 32 44 58 61 60 69 59 57 55 48 52 69 70 52 54
330 331 334 333 333 334 331 330 332 333 331 329 331 334 338 351 5 9 19 36 61 52 43 33 41 51 53 42 30 58 59 54 43 41 60 75 56 37
339 333 330 328 325 323 324 328 332 330 328 331 334 336 343 356 9 16 24 34 49 51 35 19 14 54 78 60 23 20 47 59 57 55 52 66 68 35
342 332 329 327 325 325 329 331 331 334 338 335 339 345 356 7 17 22 29 33 41 48 42 25 18 36 82 90 64 18 21 49 73 68 55 59 55 43
334 332 328 327 329 330 329 329 331 335 339 343 353 1 6 18 25 27 34 34 38 56 60 34 360 1 34 77 78 50 27 33 59 80 68 69 60 45
328 327 327 327 327 326 324 327 338 346 349 356 3 4 11 23 31 33 34 33 45 60 59 35 16 25 52 80 85 71 48 39 43 51 54 68 95 80
325 324 324 325 324 326 325 327 331 335 340 353 11 10 10 17 24 36 35 35 60 70 65 53 41 49 58 77 86 79 66 54 49 53 47 44 61 68